VRG2205 SBBR-SBGL

Flight info

Callsign VRG2205
Flight time 1h 10m
Altitude 39000
Route GEPMO UZ24 MAVGU
Aircraft MD11/H-SDE1E2E3FGHIJ2J3J4J5M1RWXY/LB1D1

Departure

Time 2026-04-29 16:44
Airport Presidente Juscelino Kubitschek International Airport (SBBR)

Arrival

Time 2026-04-29 17:54
Airport Rio Galeão – Tom Jobim International Airport (SBGL)
Time Latitude Longitude Altitude Speed Heading
2026-04-29 16:00 -15.86731 -47.92071 3479 ft 0 kts 158°
2026-04-29 16:24 -15.86716 -47.92077 3475 ft 4 kts 161°
2026-04-29 16:24 -15.86690 -47.92085 3476 ft 4 kts 163°
2026-04-29 16:24 -15.86665 -47.92094 3476 ft 4 kts 153°
2026-04-29 16:25 -15.86646 -47.92107 3476 ft 2 kts 124°
2026-04-29 16:25 -15.86637 -47.92124 3475 ft 4 kts 82°
2026-04-29 16:25 -15.86644 -47.92150 3477 ft 3 kts 70°
2026-04-29 16:25 -15.86645 -47.92154 3477 ft 0 kts 70°
2026-04-29 16:32 -15.86645 -47.92153 3477 ft 0 kts 70°
2026-04-29 16:32 -15.86641 -47.92142 3475 ft 3 kts 70°
2026-04-29 16:33 -15.86627 -47.92041 3476 ft 10 kts 86°
2026-04-29 16:33 -15.86620 -47.91945 3476 ft 14 kts 86°
2026-04-29 16:33 -15.86614 -47.91842 3478 ft 14 kts 86°
2026-04-29 16:34 -15.86621 -47.91745 3476 ft 12 kts 119°
2026-04-29 16:34 -15.86689 -47.91712 3479 ft 11 kts 173°
2026-04-29 16:34 -15.86772 -47.91705 3477 ft 13 kts 175°
2026-04-29 16:34 -15.86872 -47.91697 3478 ft 15 kts 175°
2026-04-29 16:35 -15.86982 -47.91690 3479 ft 16 kts 176°
2026-04-29 16:35 -15.87088 -47.91684 3475 ft 15 kts 176°
2026-04-29 16:35 -15.87186 -47.91677 3475 ft 14 kts 176°
2026-04-29 16:35 -15.87276 -47.91671 3477 ft 13 kts 176°
2026-04-29 16:36 -15.87363 -47.91665 3476 ft 12 kts 176°
2026-04-29 16:36 -15.87448 -47.91659 3477 ft 13 kts 176°
2026-04-29 16:36 -15.87563 -47.91651 3472 ft 19 kts 176°
2026-04-29 16:36 -15.87632 -47.91661 3472 ft 4 kts 223°
2026-04-29 16:37 -15.87643 -47.91686 3472 ft 4 kts 250°
2026-04-29 16:37 -15.87649 -47.91724 3470 ft 7 kts 263°
2026-04-29 16:37 -15.87654 -47.91788 3473 ft 10 kts 267°
2026-04-29 16:37 -15.87656 -47.91839 3471 ft 11 kts 267°
2026-04-29 16:38 -15.87662 -47.91936 3473 ft 9 kts 263°
2026-04-29 16:38 -15.87687 -47.91976 3473 ft 5 kts 212°
2026-04-29 16:38 -15.87718 -47.91981 3473 ft 5 kts 184°
2026-04-29 16:38 -15.87742 -47.91993 3473 ft 3 kts 217°
2026-04-29 16:39 -15.87755 -47.92013 3474 ft 4 kts 245°
2026-04-29 16:39 -15.87761 -47.92071 3477 ft 12 kts 266°
2026-04-29 16:39 -15.87769 -47.92191 3479 ft 21 kts 266°
2026-04-29 16:39 -15.87780 -47.92356 3480 ft 24 kts 266°
2026-04-29 16:40 -15.87792 -47.92523 3482 ft 23 kts 266°
2026-04-29 16:40 -15.87802 -47.92682 3482 ft 21 kts 267°
2026-04-29 16:40 -15.87810 -47.92825 3488 ft 19 kts 266°
2026-04-29 16:40 -15.87818 -47.92960 3489 ft 19 kts 266°
2026-04-29 16:41 -15.87827 -47.93103 3492 ft 20 kts 266°
2026-04-29 16:41 -15.87835 -47.93241 3506 ft 18 kts 266°
2026-04-29 16:41 -15.87844 -47.93365 3507 ft 17 kts 265°
2026-04-29 16:41 -15.87853 -47.93489 3511 ft 18 kts 267°
2026-04-29 16:42 -15.87861 -47.93619 3516 ft 18 kts 266°
2026-04-29 16:42 -15.87869 -47.93744 3517 ft 17 kts 266°
2026-04-29 16:42 -15.87877 -47.93866 3523 ft 18 kts 266°
2026-04-29 16:42 -15.87896 -47.93970 3520 ft 11 kts 232°
2026-04-29 16:43 -15.87968 -47.93992 3520 ft 11 kts 185°
2026-04-29 16:43 -15.88038 -47.93979 3521 ft 9 kts 144°
2026-04-29 16:43 -15.88059 -47.93918 3522 ft 11 kts 93°
2026-04-29 16:43 -15.88056 -47.93820 3515 ft 22 kts 86°
2026-04-29 16:44 -15.88022 -47.93308 3507 ft 122 kts 86°
2026-04-29 16:44 -15.87950 -47.92158 3727 ft 179 kts 86°
2026-04-29 16:44 -15.87864 -47.90923 5035 ft 160 kts 88°
2026-04-29 16:44 -15.87998 -47.89783 6242 ft 171 kts 107°
2026-04-29 16:45 -15.88716 -47.88822 7025 ft 169 kts 150°
2026-04-29 16:45 -15.89890 -47.88411 7903 ft 195 kts 162°
2026-04-29 16:45 -15.91306 -47.88038 8322 ft 223 kts 165°
2026-04-29 16:45 -15.92879 -47.87652 8704 ft 242 kts 166°
2026-04-29 16:46 -15.94608 -47.87242 8947 ft 271 kts 167°
2026-04-29 16:46 -15.96503 -47.86799 8978 ft 280 kts 167°
2026-04-29 16:46 -15.98383 -47.86364 9676 ft 278 kts 168°
2026-04-29 16:46 -16.00320 -47.85918 10370 ft 301 kts 169°
2026-04-29 16:47 -16.02533 -47.85415 10487 ft 340 kts 169°
2026-04-29 16:47 -16.04870 -47.84883 11154 ft 353 kts 168°
2026-04-29 16:47 -16.07269 -47.84178 11907 ft 363 kts 155°
2026-04-29 16:47 -16.09443 -47.82798 12774 ft 371 kts 142°
2026-04-29 16:48 -16.11451 -47.81054 13582 ft 378 kts 136°
2026-04-29 16:48 -16.13407 -47.79187 14435 ft 385 kts 135°
2026-04-29 16:48 -16.15383 -47.77272 15252 ft 391 kts 135°
2026-04-29 16:48 -16.17403 -47.75337 16050 ft 399 kts 136°
2026-04-29 16:49 -16.19472 -47.73384 16911 ft 403 kts 136°
2026-04-29 16:49 -16.21581 -47.71415 17759 ft 409 kts 136°
2026-04-29 16:49 -16.23723 -47.69431 18533 ft 416 kts 136°
2026-04-29 16:49 -16.25879 -47.67441 19224 ft 421 kts 136°
2026-04-29 16:50 -16.28084 -47.65410 19947 ft 426 kts 136°
2026-04-29 16:50 -16.30314 -47.63356 20670 ft 431 kts 136°
2026-04-29 16:50 -16.32570 -47.61278 21375 ft 435 kts 136°
2026-04-29 16:50 -16.34852 -47.59174 22068 ft 440 kts 136°
2026-04-29 16:51 -16.37161 -47.57044 22731 ft 446 kts 136°
2026-04-29 16:51 -16.39494 -47.54892 23411 ft 451 kts 136°
2026-04-29 16:51 -16.41860 -47.52708 24003 ft 456 kts 136°
2026-04-29 16:51 -16.44245 -47.50506 24614 ft 459 kts 136°
2026-04-29 16:52 -16.46647 -47.48288 25205 ft 463 kts 137°
2026-04-29 16:52 -16.49067 -47.46052 25812 ft 467 kts 137°
2026-04-29 16:52 -16.51506 -47.43798 26388 ft 470 kts 137°
2026-04-29 16:52 -16.53960 -47.41530 26957 ft 474 kts 137°
2026-04-29 16:53 -16.56440 -47.39235 27552 ft 477 kts 137°
2026-04-29 16:53 -16.58938 -47.36924 28092 ft 481 kts 137°
2026-04-29 16:53 -16.61444 -47.34605 28698 ft 483 kts 137°
2026-04-29 16:53 -16.63967 -47.32269 29264 ft 486 kts 137°
2026-04-29 16:54 -16.66510 -47.29914 29700 ft 492 kts 137°
2026-04-29 16:54 -16.69081 -47.27531 30238 ft 494 kts 137°
2026-04-29 16:54 -16.71654 -47.25143 30748 ft 496 kts 137°
2026-04-29 16:54 -16.74205 -47.22772 31272 ft 497 kts 138°
2026-04-29 16:55 -16.76771 -47.20387 31993 ft 493 kts 138°
2026-04-29 16:55 -16.79319 -47.18020 32710 ft 489 kts 139°
2026-04-29 16:55 -16.81860 -47.15659 33348 ft 486 kts 139°
2026-04-29 16:55 -16.84381 -47.13312 34007 ft 485 kts 139°
2026-04-29 16:56 -16.86867 -47.10949 34569 ft 482 kts 138°
2026-04-29 16:56 -16.89332 -47.08570 34997 ft 482 kts 138°
2026-04-29 16:56 -16.91788 -47.06183 35505 ft 481 kts 138°
2026-04-29 16:56 -16.94236 -47.03798 35926 ft 481 kts 138°
2026-04-29 16:57 -16.96682 -47.01416 36398 ft 480 kts 138°
2026-04-29 16:57 -16.99116 -46.99046 36891 ft 478 kts 138°
2026-04-29 16:57 -17.01547 -46.96683 37312 ft 477 kts 138°
2026-04-29 16:57 -17.03972 -46.94325 37747 ft 476 kts 138°
2026-04-29 16:58 -17.06394 -46.91970 38136 ft 475 kts 138°
2026-04-29 16:58 -17.08816 -46.89615 38532 ft 475 kts 138°
2026-04-29 16:58 -17.11234 -46.87263 38850 ft 475 kts 138°
2026-04-29 16:58 -17.13662 -46.84904 38951 ft 478 kts 139°
2026-04-29 16:59 -17.19052 -46.80798 38972 ft 481 kts 150°
2026-04-29 16:59 -17.24808 -46.77325 38977 ft 480 kts 152°
2026-04-29 17:00 -17.30628 -46.73860 38986 ft 481 kts 152°
2026-04-29 17:00 -17.36412 -46.70330 38976 ft 481 kts 151°
2026-04-29 17:01 -17.42182 -46.66768 38973 ft 481 kts 151°
2026-04-29 17:01 -17.47945 -46.63201 38978 ft 481 kts 151°
2026-04-29 17:02 -17.53675 -46.59656 38979 ft 481 kts 151°
2026-04-29 17:02 -17.59448 -46.56083 38973 ft 482 kts 151°
2026-04-29 17:03 -17.65224 -46.52506 38972 ft 481 kts 151°
2026-04-29 17:03 -17.70984 -46.48935 38986 ft 481 kts 151°
2026-04-29 17:04 -17.76754 -46.45356 38981 ft 482 kts 151°
2026-04-29 17:04 -17.82496 -46.41792 38980 ft 482 kts 151°
2026-04-29 17:05 -17.88280 -46.38197 38987 ft 482 kts 151°
2026-04-29 17:05 -17.94056 -46.34597 38983 ft 482 kts 151°
2026-04-29 17:06 -17.99840 -46.30995 38985 ft 482 kts 151°
2026-04-29 17:06 -18.05581 -46.27420 38992 ft 483 kts 151°
2026-04-29 17:07 -18.10422 -46.24404 38989 ft 483 kts 151°
2026-04-29 17:07 -18.17144 -46.20212 39007 ft 484 kts 151°
2026-04-29 17:08 -18.22935 -46.16601 39010 ft 484 kts 151°
2026-04-29 17:08 -18.28720 -46.13002 39012 ft 484 kts 151°
2026-04-29 17:09 -18.34517 -46.09399 39010 ft 484 kts 152°
2026-04-29 17:09 -18.40324 -46.05788 39012 ft 485 kts 152°
2026-04-29 17:10 -18.46142 -46.02166 39012 ft 485 kts 152°
2026-04-29 17:10 -18.51921 -45.98565 39013 ft 485 kts 152°
2026-04-29 17:11 -18.57737 -45.94937 39014 ft 485 kts 152°
2026-04-29 17:11 -18.63547 -45.91312 39013 ft 484 kts 152°
2026-04-29 17:12 -18.69352 -45.87687 39012 ft 484 kts 152°
2026-04-29 17:12 -18.74170 -45.84676 39012 ft 484 kts 152°
2026-04-29 17:13 -18.80910 -45.80459 39010 ft 484 kts 152°
2026-04-29 17:13 -18.86735 -45.76861 39005 ft 484 kts 153°
2026-04-29 17:14 -18.92569 -45.73308 39007 ft 483 kts 153°
2026-04-29 17:14 -18.98404 -45.69759 39010 ft 484 kts 153°
2026-04-29 17:15 -19.04241 -45.66203 39005 ft 484 kts 153°
2026-04-29 17:15 -19.10074 -45.62643 39006 ft 484 kts 153°
2026-04-29 17:16 -19.15866 -45.59105 39004 ft 484 kts 153°
2026-04-29 17:16 -19.21708 -45.55533 39004 ft 484 kts 153°
2026-04-29 17:17 -19.27550 -45.51959 39000 ft 485 kts 153°
2026-04-29 17:17 -19.33385 -45.48383 39002 ft 485 kts 153°
2026-04-29 17:18 -19.39188 -45.44808 39003 ft 485 kts 153°
2026-04-29 17:18 -19.45034 -45.41203 39001 ft 485 kts 153°
2026-04-29 17:19 -19.49890 -45.38208 39002 ft 486 kts 153°
2026-04-29 17:19 -19.56677 -45.34020 39001 ft 485 kts 153°
2026-04-29 17:20 -19.62518 -45.30412 39004 ft 485 kts 153°
2026-04-29 17:20 -19.68352 -45.26807 39004 ft 486 kts 153°
2026-04-29 17:21 -19.73244 -45.23781 39005 ft 486 kts 153°
2026-04-29 17:21 -19.79049 -45.20187 39008 ft 485 kts 153°
2026-04-29 17:22 -19.84889 -45.16569 39007 ft 486 kts 153°
2026-04-29 17:22 -19.90752 -45.12955 39009 ft 486 kts 153°
2026-04-29 17:23 -19.96616 -45.09353 39013 ft 486 kts 153°
2026-04-29 17:23 -20.02449 -45.05769 39013 ft 487 kts 153°
2026-04-29 17:24 -20.08322 -45.02157 39013 ft 488 kts 153°
2026-04-29 17:24 -20.14199 -44.98539 39015 ft 488 kts 153°
2026-04-29 17:25 -20.20077 -44.94916 39012 ft 488 kts 153°
2026-04-29 17:25 -20.25956 -44.91290 39016 ft 489 kts 153°
2026-04-29 17:26 -20.31848 -44.87653 39015 ft 490 kts 153°
2026-04-29 17:26 -20.37710 -44.84031 39018 ft 490 kts 153°
2026-04-29 17:27 -20.43618 -44.80376 39015 ft 490 kts 153°
2026-04-29 17:27 -20.49502 -44.76709 39021 ft 490 kts 153°
2026-04-29 17:28 -20.55329 -44.72916 39019 ft 492 kts 152°
2026-04-29 17:28 -20.61164 -44.69067 39021 ft 493 kts 152°
2026-04-29 17:29 -20.66997 -44.65226 39022 ft 493 kts 152°
2026-04-29 17:29 -20.72837 -44.61387 39025 ft 493 kts 152°
2026-04-29 17:30 -20.78642 -44.57575 39027 ft 492 kts 152°
2026-04-29 17:30 -20.84522 -44.53819 39027 ft 491 kts 153°
2026-04-29 17:31 -20.87432 -44.51985 38875 ft 479 kts 153°
2026-04-29 17:31 -20.90278 -44.50195 38567 ft 473 kts 153°
2026-04-29 17:31 -20.93107 -44.48416 38141 ft 470 kts 153°
2026-04-29 17:31 -20.95927 -44.46644 37628 ft 470 kts 153°
2026-04-29 17:32 -20.98747 -44.44868 37145 ft 470 kts 153°
2026-04-29 17:32 -21.01571 -44.43088 36654 ft 472 kts 153°
2026-04-29 17:32 -21.04406 -44.41301 36170 ft 473 kts 153°
2026-04-29 17:32 -21.07255 -44.39501 35680 ft 475 kts 153°
2026-04-29 17:33 -21.10104 -44.37696 35180 ft 476 kts 152°
2026-04-29 17:33 -21.12956 -44.35884 34661 ft 478 kts 152°
2026-04-29 17:33 -21.15822 -44.34061 34145 ft 479 kts 152°
2026-04-29 17:33 -21.18650 -44.32262 33575 ft 480 kts 152°
2026-04-29 17:34 -21.21532 -44.30427 33020 ft 481 kts 152°
2026-04-29 17:34 -21.24416 -44.28585 32480 ft 483 kts 152°
2026-04-29 17:34 -21.27304 -44.26729 31901 ft 486 kts 152°
2026-04-29 17:34 -21.30207 -44.24857 31319 ft 487 kts 151°
2026-04-29 17:35 -21.34962 -44.21788 30382 ft 490 kts 151°
2026-04-29 17:35 -21.38878 -44.19259 29534 ft 492 kts 151°
2026-04-29 17:35 -21.41822 -44.17358 28911 ft 493 kts 151°
2026-04-29 17:36 -21.44771 -44.15451 28304 ft 497 kts 151°
2026-04-29 17:36 -21.47732 -44.13531 27718 ft 499 kts 151°
2026-04-29 17:36 -21.50704 -44.11598 27113 ft 500 kts 151°
2026-04-29 17:36 -21.53678 -44.09661 26499 ft 500 kts 150°
2026-04-29 17:37 -21.56643 -44.07801 25904 ft 497 kts 153°
2026-04-29 17:37 -21.59690 -44.06092 25281 ft 492 kts 155°
2026-04-29 17:37 -21.62752 -44.04491 24660 ft 488 kts 156°
2026-04-29 17:37 -21.65806 -44.02942 24029 ft 483 kts 157°
2026-04-29 17:38 -21.68841 -44.01410 23385 ft 480 kts 156°
2026-04-29 17:38 -21.71853 -43.99881 22704 ft 476 kts 156°
2026-04-29 17:38 -21.74811 -43.98367 22066 ft 472 kts 156°
2026-04-29 17:38 -21.77761 -43.96848 21451 ft 467 kts 156°
2026-04-29 17:39 -21.80673 -43.95343 20846 ft 462 kts 156°
2026-04-29 17:39 -21.83553 -43.93851 20257 ft 457 kts 156°
2026-04-29 17:39 -21.86373 -43.92392 19670 ft 453 kts 155°
2026-04-29 17:39 -21.89204 -43.90930 19066 ft 448 kts 155°
2026-04-29 17:40 -21.92000 -43.89486 18520 ft 444 kts 155°
2026-04-29 17:40 -21.94777 -43.88053 17886 ft 440 kts 155°
2026-04-29 17:40 -21.97524 -43.86636 17284 ft 435 kts 155°
2026-04-29 17:40 -22.00252 -43.85228 16687 ft 430 kts 155°
2026-04-29 17:41 -22.02938 -43.83841 16123 ft 426 kts 155°
2026-04-29 17:41 -22.05601 -43.82465 15551 ft 422 kts 155°
2026-04-29 17:41 -22.08231 -43.81105 15012 ft 416 kts 154°
2026-04-29 17:41 -22.10827 -43.79763 14484 ft 412 kts 154°
2026-04-29 17:42 -22.13372 -43.78446 13962 ft 409 kts 154°
2026-04-29 17:42 -22.15927 -43.77124 13394 ft 405 kts 154°
2026-04-29 17:42 -22.18451 -43.75817 12854 ft 400 kts 154°
2026-04-29 17:42 -22.20939 -43.74528 12326 ft 394 kts 154°
2026-04-29 17:43 -22.23391 -43.73258 11825 ft 388 kts 154°
2026-04-29 17:43 -22.25818 -43.72000 11347 ft 385 kts 153°
2026-04-29 17:43 -22.28220 -43.70755 11040 ft 382 kts 154°
2026-04-29 17:43 -22.30556 -43.69542 10908 ft 358 kts 154°
2026-04-29 17:44 -22.32722 -43.68417 10788 ft 332 kts 154°
2026-04-29 17:44 -22.34733 -43.67371 10660 ft 309 kts 154°
2026-04-29 17:44 -22.36623 -43.66389 10533 ft 298 kts 153°
2026-04-29 17:44 -22.38493 -43.65416 10397 ft 298 kts 153°
2026-04-29 17:45 -22.40362 -43.64443 10100 ft 297 kts 153°
2026-04-29 17:45 -22.42215 -43.63480 9598 ft 294 kts 153°
2026-04-29 17:45 -22.44045 -43.62528 9127 ft 289 kts 154°
2026-04-29 17:45 -22.45848 -43.61590 8686 ft 286 kts 154°
2026-04-29 17:46 -22.47634 -43.60660 8272 ft 284 kts 153°
2026-04-29 17:46 -22.49419 -43.59730 7910 ft 285 kts 154°
2026-04-29 17:46 -22.51180 -43.58812 7554 ft 283 kts 154°
2026-04-29 17:46 -22.52948 -43.57891 7203 ft 281 kts 154°
2026-04-29 17:47 -22.54703 -43.56977 7072 ft 281 kts 154°
2026-04-29 17:47 -22.56462 -43.56057 7043 ft 281 kts 153°
2026-04-29 17:47 -22.58253 -43.55116 6765 ft 286 kts 154°
2026-04-29 17:47 -22.60010 -43.54193 6487 ft 280 kts 153°
2026-04-29 17:48 -22.61774 -43.53264 6428 ft 280 kts 153°
2026-04-29 17:48 -22.63512 -43.52291 6433 ft 282 kts 145°
2026-04-29 17:48 -22.64953 -43.50862 6293 ft 283 kts 130°
2026-04-29 17:48 -22.66179 -43.49220 5974 ft 279 kts 125°
2026-04-29 17:49 -22.67313 -43.47517 5613 ft 273 kts 123°
2026-04-29 17:49 -22.68365 -43.45901 5173 ft 252 kts 123°
2026-04-29 17:49 -22.69332 -43.44418 4721 ft 232 kts 124°
2026-04-29 17:49 -22.70245 -43.43024 4411 ft 224 kts 124°
2026-04-29 17:50 -22.71100 -43.41723 4107 ft 202 kts 124°
2026-04-29 17:50 -22.71911 -43.40491 3793 ft 193 kts 124°
2026-04-29 17:50 -22.72650 -43.39371 3376 ft 172 kts 125°
2026-04-29 17:50 -22.73320 -43.38354 2952 ft 160 kts 125°
2026-04-29 17:51 -22.73960 -43.37386 2605 ft 157 kts 125°
2026-04-29 17:51 -22.74586 -43.36437 2230 ft 153 kts 125°
2026-04-29 17:51 -22.75199 -43.35509 1972 ft 151 kts 126°
2026-04-29 17:51 -22.75804 -43.34595 1788 ft 151 kts 126°
2026-04-29 17:52 -22.76412 -43.33674 1600 ft 150 kts 126°
2026-04-29 17:52 -22.76815 -43.33064 1468 ft 149 kts 126°
2026-04-29 17:52 -22.77617 -43.31849 1202 ft 147 kts 126°
2026-04-29 17:52 -22.78211 -43.30952 1023 ft 145 kts 126°
2026-04-29 17:53 -22.78795 -43.30069 835 ft 144 kts 124°
2026-04-29 17:53 -22.79374 -43.29192 669 ft 144 kts 125°
2026-04-29 17:53 -22.79957 -43.28307 509 ft 143 kts 124°
2026-04-29 17:53 -22.80520 -43.27427 349 ft 140 kts 125°
2026-04-29 17:54 -22.81089 -43.26592 136 ft 141 kts 126°
2026-04-29 17:54 -22.81638 -43.25761 32 ft 121 kts 125°
2026-04-29 17:54 -22.82057 -43.25139 31 ft 88 kts 126°
2026-04-29 17:54 -22.82321 -43.24739 29 ft 40 kts 120°
2026-04-29 17:55 -22.82361 -43.24553 27 ft 18 kts 95°
2026-04-29 17:55 -22.82366 -43.24468 30 ft 7 kts 86°
2026-04-29 17:55 -22.82344 -43.24442 30 ft 3 kts 17°
2026-04-29 17:55 -22.82329 -43.24447 27 ft 4 kts 334°
2026-04-29 17:56 -22.82273 -43.24539 27 ft 26 kts 304°
2026-04-29 17:56 -22.82173 -43.24690 27 ft 16 kts 307°
2026-04-29 17:56 -22.82126 -43.24732 28 ft 3 kts 358°
2026-04-29 17:56 -22.82099 -43.24720 28 ft 7 kts 28°
2026-04-29 17:57 -22.82030 -43.24671 29 ft 17 kts 32°
2026-04-29 17:57 -22.81936 -43.24593 29 ft 12 kts 56°
2026-04-29 17:57 -22.81910 -43.24508 29 ft 12 kts 75°
2026-04-29 17:57 -22.81906 -43.24490 28 ft 0 kts 77°
2026-04-29 17:58 -22.81904 -43.24480 29 ft 0 kts 77°